User: anonymous   Login
Location: Unspecified
(0.0000°N, 0.0000°E)
Time: 02:56:44
(UTC+00:00)
Language:

STARLINK-30070 - Orbit

View from above orbital plane
View from above orbital plane
View from above satellite
View from above satellite

Ground track
Ground track

The orbit is defined by the following mean orbital elements,

1 56707U          26145.54729964 +.00000000 +00000-0 +32111-4 0 00004
2 56707  43.0019 197.0750 0001699 254.8071 105.2593 15.27578188    02
Epoch (UTC): 25 May 2026 13:08:06
Eccentricity: 0.0001699
inclination: 43.0019°
perigee height: 482 km
apogee height: 484 km
right ascension of ascending node: 197.0750°
argument of perigee: 254.8071°
revolutions per day: 15.27578188
mean anomaly at epoch: 105.2593°

The dashed part of the orbit path shows where the satellite is in the earth's shadow,  

DLR